Location: Platte
(43.3870°N, 98.8440°W)
Time: 02:07:58
(UTC-05:00)

Cosmos 2298 Rocket - Pass Details

Date: 21 May 2018
Orbit: 776 x 784 km, 74.0° (Epoch: 13 August)

Event Time Altitude Azimuth Distance (km) Brightness Sun altitude
Rises 22:38:54 0° 342° (NNW) 3,268 8.6 -14.9°
Reaches altitude 10° 22:41:20 10° 346° (NNW) 2,335 7.5 -15.2°
Maximum altitude 22:46:35 62° 67° (ENE) 873 4.2 -15.8°
Enters shadow 22:49:28 27° 140° (SE) 1,473 4.9 -16.1°
